Location: L�Ave Maria
(50.7161°N, 1.5911°E)
Time: 23:52:40
(UTC+00:00)

Cosmos 2369 Rocket - Pass Details

Date: 10 July 2020
Orbit: 829 x 852 km, 71.0° (Epoch: 14 August)

Event Time Altitude Azimuth Distance (km) Brightness Sun altitude
Rises 22:19:10 0° 332° (NNW) 3,384 7.3 -13.9°
Reaches altitude 10° 22:21:43 10° 338° (NNW) 2,448 6.1 -14.1°
Maximum altitude 22:27:07 47° 52° (NE) 1,095 2.9 -14.4°
Enters shadow 22:31:36 15° 122° (ESE) 2,118 3.8 -14.7°
